Wind_Speed
39 38 36 34 34 35 34 32 30 28 26 24 24 24 24 26 26 26 29 31 32 32 38 38 35 30 26 27 27 26 26 25 27 25 29 41 40 26 44 39 38 50 57
39 36 32 30 30 30 28 26 27 26 26 25 18 17 20 20 23 25 25 26 26 29 33 38 34 30 28 28 28 26 27 26 27 29 23 24 31 20 21 47 45 40 42
39 35 31 30 27 27 25 22 20 19 22 22 16 9 12 13 18 19 21 22 24 24 29 35 32 30 28 26 25 24 25 26 24 23 24 32 18 27 24 38 44 38 53
33 34 36 37 34 31 27 25 23 15 11 9 18 11 8 5 8 14 15 16 17 21 26 29 28 27 24 21 20 21 22 23 19 18 19 26 25 25 31 43 43 50 55
35 37 36 39 35 34 33 35 24 16 9 5 2 15 9 3 3 1 4 7 12 16 20 21 21 19 14 19 18 18 17 17 17 17 20 26 26 25 39 30 37 46 48
38 35 36 38 35 37 35 37 33 23 19 15 10 6 11 6 2 4 5 6 9 12 16 18 21 23 22 14 14 15 14 15 13 19 15 24 24 32 31 32 41 34 33
39 37 39 40 40 33 30 32 29 31 28 24 19 12 6 8 6 6 5 5 6 9 11 6 15 22 18 14 17 14 14 12 12 12 12 20 35 33 37 42 37 24 30
49 47 48 48 49 41 31 28 25 24 24 24 22 20 19 14 12 11 10 8 6 7 10 11 13 15 18 23 22 10 14 15 9 9 24 16 28 33 36 30 25 22 15
43 42 42 46 48 50 53 50 33 22 24 29 27 21 16 14 9 10 17 19 17 19 21 23 18 14 14 23 20 9 12 14 13 12 10 16 22 23 21 18 17 16 15
41 41 42 40 43 42 44 46 51 37 30 24 29 26 19 15 16 16 15 16 19 13 11 16 9 6 18 13 5 10 5 2 4 10 19 21 26 24 20 17 13 5 1
38 39 39 41 40 40 40 42 46 51 49 47 45 45 36 28 28 21 10 7 15 17 14 12 18 17 14 7 15 9 8 10 15 15 20 19 15 10 5 8 9 10 10
38 38 39 39 38 39 40 39 40 40 41 42 41 43 47 46 33 32 31 27 25 20 20 24 21 18 15 23 28 29 26 22 19 15 14 17 17 17 16 14 12 10 9
36 37 38 37 37 38 40 43 41 39 39 38 37 39 42 42 44 47 47 45 44 46 44 40 38 38 36 34 32 27 23 20 21 20 20 19 18 17 16 14 14 14 11
35 35 36 37 37 38 40 43 44 45 45 45 45 46 45 45 46 46 45 43 43 44 43 42 40 39 37 37 34 31 27 25 23 22 21 20 19 18 16 16 14 14 11
34 34 36 37 37 38 40 43 44 45 43 44 45 45 44 46 47 44 42 42 42 42 41 41 41 39 37 36 34 31 30 27 26 25 23 22 21 18 17 17 16 14 11
31 32 34 36 37 37 39 40 42 43 44 44 45 46 47 46 43 42 42 42 42 39 39 40 40 38 37 36 33 31 30 27 26 25 23 22 21 20 19 18 16 15 13
30 31 32 34 35 34 35 36 39 41 42 43 43 44 43 44 42 41 40 40 40 35 42 42 42 40 39 37 36 34 33 31 29 27 25 24 23 22 20 19 18 17 17
27 28 29 31 32 31 32 34 34 34 37 39 40 40 40 40 40 39 37 38 41 43 46 46 45 43 42 40 39 38 37 34 32 31 30 29 27 25 23 23 22 22 22
23 26 26 28 29 28 29 30 31 31 33 37 39 38 39 38 38 38 36 42 47 50 50 51 49 47 45 42 41 40 39 38 36 34 33 33 32 30 31 32 31 30 29
21 23 24 25 26 26 27 28 29 30 32 35 37 40 39 35 37 38 40 45 48 50 50 50 50 49 48 47 44 42 40 40 40 38 35 34 34 35 37 38 37 36 36
18 20 22 22 23 24 25 26 28 28 31 33 36 38 36 34 38 38 41 43 45 47 47 48 47 47 47 47 47 46 44 43 42 40 38 37 37 37 37 38 37 36 35
16 18 19 19 21 22 22 25 27 27 30 31 34 35 35 33 36 38 40 42 43 44 45 44 44 44 44 44 44 45 46 45 44 42 41 40 39 40 39 41 40 37 37
15 16 17 18 19 20 21 24 25 26 27 29 31 33 34 34 36 37 38 40 41 41 41 41 41 41 41 41 41 42 42 44 45 44 44 43 42 43 42 40 38 35 35
13 15 16 16 17 18 19 22 23 24 25 27 28 31 32 33 34 35 36 37 37 37 37 38 38 39 39 40 40 41 42 42 42 43 43 42 40 40 41 39 37 35 37
13 14 15 14 15 16 18 20 22 22 23 24 25 27 29 30 31 32 33 33 34 34 35 36 36 37 37 38 38 40 42 42 41 40 41 41 39 37 36 35 35 34 34
14 14 14 14 15 15 17 19 20 21 21 22 23 24 25 26 28 29 29 29 30 31 31 33 34 34 35 35 37 38 39 40 40 40 39 39 39 39 37 35 33 32 30
Wind_Direction
343 337 335 328 315 306 292 290 290 290 288 284 285 278 272 269 258 255 256 252 249 248 237 238 242 245 251 257 256 249 244 249 254 252 247 229 223 220 219 221 222 226 230
348 347 343 336 336 332 328 310 293 286 280 278 269 285 276 265 254 256 255 249 248 244 232 231 238 242 249 255 255 247 244 241 245 240 248 237 227 210 224 223 240 227 226
352 353 357 355 347 342 337 334 327 311 284 268 255 265 294 261 252 253 248 246 243 238 228 230 236 243 250 256 255 249 247 249 251 243 247 225 250 218 218 222 216 220 219
7 10 13 10 8 9 6 3 350 333 309 304 242 220 265 283 243 230 240 240 231 225 222 227 236 244 253 255 250 245 247 246 229 222 221 241 239 253 246 209 226 224 202
19 20 19 21 20 20 22 20 15 27 39 33 266 207 213 268 15 211 206 205 210 211 214 225 239 250 246 248 240 231 229 216 208 210 228 234 246 244 207 235 240 212 216
27 27 28 24 21 15 27 29 32 51 54 51 58 184 198 209 201 115 112 180 195 206 215 222 223 228 233 233 215 201 206 202 206 221 226 234 238 255 245 229 202 238 219
37 35 32 25 20 20 27 35 40 44 51 55 59 79 138 187 200 198 194 197 175 184 195 219 219 219 216 197 177 176 193 205 207 225 223 238 236 262 231 214 221 235 216
48 46 42 35 36 38 35 37 53 54 55 49 59 74 81 94 103 114 130 143 167 185 195 194 155 161 175 173 172 204 208 186 193 216 239 241 256 219 215 205 206 200 199
40 37 35 40 41 43 48 48 47 58 66 63 57 62 82 93 104 127 122 110 105 114 117 110 111 126 163 163 164 167 210 213 190 235 198 207 196 200 193 194 195 201 201
39 36 37 43 44 43 46 49 48 59 70 73 71 64 60 63 77 99 110 118 130 145 158 148 152 105 164 183 186 183 197 195 254 197 176 183 183 183 183 198 210 218 199
37 39 40 40 41 44 49 50 58 61 67 68 67 68 69 68 67 68 74 79 124 119 120 111 146 145 136 135 167 161 187 139 113 133 143 154 168 179 134 104 123 139 137
38 38 40 40 43 47 53 57 62 64 70 69 65 62 64 75 82 80 78 75 103 145 100 94 98 133 112 103 102 99 96 108 130 139 130 122 116 118 119 120 117 113 114
42 42 44 44 48 54 58 62 64 65 66 68 67 70 75 76 80 84 87 87 89 95 98 97 99 102 101 96 91 92 93 94 92 94 96 95 96 95 96 97 101 99 99
49 48 50 51 52 58 62 65 67 67 69 71 73 74 75 79 82 85 88 90 93 94 96 96 95 94 93 91 90 90 90 89 90 89 88 90 92 94 96 94 92 92 92
51 51 53 55 56 59 64 67 69 71 70 72 74 77 78 80 79 81 84 86 89 90 93 93 92 90 90 88 87 85 83 84 84 84 85 85 86 86 87 88 89 90 95
56 55 56 58 58 61 64 68 72 75 76 76 77 78 78 77 79 82 85 86 86 87 92 91 90 88 86 85 85 84 85 83 82 81 81 81 80 79 78 79 80 82 84
58 59 59 59 60 62 66 69 72 74 76 77 77 77 79 81 82 82 83 85 88 93 90 88 87 85 84 84 82 81 79 79 79 81 82 83 83 82 81 81 81 81 82
60 62 62 62 62 63 66 69 71 74 78 79 79 80 80 81 82 83 85 90 92 88 85 84 82 81 79 78 77 75 75 75 76 78 80 81 83 83 83 84 85 86 88
65 66 65 65 66 65 67 70 73 74 77 81 81 81 79 80 81 84 89 89 86 84 82 81 79 77 76 74 73 73 72 73 74 77 80 81 81 82 82 82 82 84 88
72 71 70 69 69 70 72 73 75 76 79 80 82 81 80 81 87 90 89 86 85 83 82 81 79 78 76 73 71 70 70 70 71 74 79 82 82 82 83 85 87 91 94
79 78 76 75 74 74 75 77 78 80 82 83 82 83 86 89 90 89 86 85 83 82 81 80 79 77 76 74 71 69 69 70 70 70 75 79 83 84 86 89 93 94 96
88 85 82 80 79 79 81 82 82 82 83 85 87 89 91 92 91 89 87 86 85 83 80 78 77 76 75 74 72 71 68 67 70 71 72 78 85 90 91 92 94 93 92
99 94 90 87 87 87 88 88 87 87 88 88 91 94 94 93 91 89 89 87 85 82 79 77 74 73 71 71 71 71 70 69 68 70 73 79 87 91 91 90 90 88 84
112 106 100 97 96 96 97 96 94 93 94 94 96 96 96 94 92 91 89 87 84 82 79 77 74 72 70 69 69 70 71 72 72 71 74 81 89 92 90 89 87 85 83
126 118 112 110 108 107 107 105 102 101 100 101 101 100 98 96 95 93 90 88 84 81 79 77 75 73 72 70 70 70 70 72 75 76 76 78 84 89 90 90 89 86 83
140 132 126 123 120 119 118 115 111 109 108 108 107 106 103 101 98 95 93 90 86 83 80 78 75 73 72 71 71 71 71 71 72 76 79 79 81 84 87 89 89 88 84
Height
2933 2923 2914 2905 2898 2892 2886 2882 2879 2876 2874 2873 2873 2873 2874 2875 2877 2879 2882 2885 2888 2892 2896 2902 2907 2911 2914 2914 2915 2918 2919 2922 2922 2925 2927 2930 2938 2940 2948 2956 2962 2968 2972
2929 2918 2908 2899 2892 2884 2877 2872 2869 2867 2866 2865 2866 2866 2866 2867 2869 2871 2873 2876 2879 2883 2888 2894 2899 2903 2906 2907 2909 2911 2913 2916 2918 2920 2922 2927 2930 2933 2940 2947 2952 2958 2962
2925 2914 2905 2896 2888 2880 2873 2867 2862 2858 2857 2858 2859 2861 2861 2860 2863 2865 2866 2869 2872 2877 2882 2888 2892 2896 2899 2901 2903 2906 2908 2909 2912 2914 2918 2920 2924 2926 2931 2936 2945 2946 2954
2924 2914 2904 2896 2887 2880 2871 2863 2857 2852 2851 2851 2854 2857 2858 2857 2858 2860 2862 2864 2868 2872 2877 2883 2888 2891 2894 2896 2898 2900 2902 2904 2908 2911 2913 2917 2919 2920 2924 2930 2937 2938 2944
2925 2915 2908 2899 2892 2884 2876 2868 2858 2852 2850 2849 2849 2853 2855 2857 2858 2859 2861 2863 2866 2870 2875 2880 2883 2886 2889 2892 2893 2896 2899 2902 2906 2906 2912 2914 2915 2917 2920 2924 2927 2933 2940
2929 2922 2913 2906 2899 2890 2881 2874 2866 2858 2855 2853 2851 2852 2854 2857 2860 2861 2863 2865 2867 2871 2874 2877 2880 2884 2887 2889 2891 2895 2898 2899 2902 2904 2908 2911 2915 2914 2919 2921 2925 2931 2933
2937 2929 2920 2912 2904 2895 2888 2881 2874 2868 2864 2860 2857 2855 2856 2859 2861 2862 2864 2866 2868 2870 2872 2874 2875 2880 2885 2888 2891 2894 2896 2896 2899 2903 2905 2909 2911 2914 2916 2921 2924 2927 2930
2946 2938 2929 2921 2912 2901 2894 2887 2880 2875 2871 2868 2866 2863 2862 2862 2863 2864 2866 2868 2869 2870 2872 2874 2876 2879 2883 2886 2889 2891 2895 2897 2898 2902 2902 2907 2908 2912 2918 2923 2925 2927 2932
2955 2947 2940 2932 2923 2914 2905 2897 2889 2883 2878 2875 2874 2872 2870 2868 2868 2868 2869 2871 2872 2872 2873 2877 2881 2884 2887 2888 2889 2893 2894 2895 2898 2902 2902 2908 2914 2917 2921 2924 2927 2930 2933
2965 2958 2951 2943 2935 2926 2917 2909 2902 2893 2888 2886 2882 2879 2877 2875 2874 2875 2875 2876 2876 2877 2877 2881 2885 2885 2888 2892 2894 2898 2896 2897 2897 2900 2902 2906 2913 2918 2922 2925 2926 2927 2928
2978 2970 2962 2954 2945 2937 2930 2923 2915 2909 2904 2900 2897 2888 2882 2880 2879 2879 2879 2880 2880 2883 2884 2886 2886 2888 2891 2896 2897 2900 2901 2902 2903 2907 2910 2914 2917 2919 2920 2923 2926 2927 2928
2988 2981 2972 2965 2956 2949 2942 2935 2930 2923 2918 2913 2909 2904 2899 2892 2891 2890 2890 2889 2887 2889 2892 2893 2894 2899 2901 2902 2904 2907 2908 2911 2914 2916 2918 2919 2921 2923 2926 2928 2929 2929 2930
2997 2991 2983 2977 2969 2962 2954 2947 2942 2936 2931 2926 2922 2917 2914 2912 2909 2907 2906 2906 2906 2903 2904 2907 2909 2910 2911 2911 2913 2915 2916 2918 2919 2920 2920 2921 2924 2925 2927 2929 2930 2932 2934
3006 3001 2995 2988 2982 2975 2967 2960 2955 2950 2945 2941 2937 2932 2930 2928 2924 2923 2923 2923 2922 2920 2921 2921 2921 2921 2922 2922 2923 2925 2927 2928 2929 2929 2929 2929 2931 2932 2933 2933 2933 2934 2936
3015 3011 3005 3000 2994 2988 2981 2974 2968 2963 2960 2957 2952 2949 2948 2944 2939 2941 2941 2940 2939 2937 2937 2935 2935 2934 2934 2935 2935 2935 2935 2936 2936 2936 2936 2936 2936 2937 2937 2936 2937 2938 2939
3024 3021 3015 3010 3005 3000 2995 2989 2984 2979 2975 2972 2968 2965 2961 2959 2959 2958 2957 2955 2954 2954 2953 2950 2948 2948 2947 2947 2947 2946 2946 2946 2945 2944 2943 2942 2942 2942 2941 2941 2941 2941 2942
3032 3029 3025 3021 3016 3013 3009 3004 2999 2994 2990 2986 2982 2980 2978 2975 2975 2975 2974 2971 2969 2972 2964 2962 2960 2960 2959 2958 2958 2956 2955 2953 2952 2951 2950 2949 2948 2948 2947 2946 2946 2946 2946
3040 3037 3034 3030 3027 3024 3021 3016 3013 3009 3004 2999 2997 2995 2993 2992 2990 2988 2989 2987 2984 2980 2976 2974 2973 2972 2971 2969 2968 2966 2964 2963 2961 2959 2958 2956 2956 2955 2954 2953 2952 2952 2952
3048 3045 3043 3039 3037 3034 3031 3028 3025 3022 3017 3012 3009 3008 3006 3005 3004 3002 3004 3000 2995 2991 2989 2987 2985 2984 2982 2981 2979 2977 2975 2973 2971 2969 2967 2965 2964 2963 2962 2960 2959 2959 2959
3055 3052 3050 3048 3046 3043 3041 3039 3035 3033 3029 3026 3022 3018 3018 3020 3018 3018 3016 3011 3007 3004 3003 3001 3000 2998 2996 2993 2991 2989 2986 2983 2981 2979 2977 2975 2974 2972 2970 2970 2970 2969 2969
3061 3059 3057 3056 3054 3052 3050 3048 3045 3043 3040 3037 3033 3030 3031 3035 3031 3030 3027 3024 3021 3018 3017 3015 3014 3012 3009 3007 3004 3002 2998 2995 2992 2989 2987 2985 2983 2982 2981 2981 2981 2980 2980
3066 3065 3064 3063 3061 3059 3058 3057 3055 3053 3050 3049 3045 3043 3044 3046 3043 3041 3038 3035 3033 3031 3029 3029 3027 3025 3023 3021 3018 3015 3012 3008 3004 3002 2998 2996 2995 2994 2994 2993 2993 2992 2992
3071 3070 3069 3069 3068 3066 3066 3064 3064 3062 3061 3059 3057 3055 3055 3055 3054 3052 3050 3048 3046 3044 3042 3041 3039 3037 3035 3033 3030 3027 3025 3021 3018 3015 3012 3009 3008 3008 3007 3006 3004 3003 3003
3075 3074 3074 3074 3074 3073 3072 3072 3071 3071 3070 3068 3067 3066 3066 3065 3064 3063 3061 3059 3058 3056 3055 3053 3051 3049 3047 3044 3042 3039 3037 3034 3031 3028 3026 3024 3022 3021 3020 3019 3017 3015 3015
3078 3078 3078 3079 3079 3079 3078 3078 3078 3078 3077 3077 3077 3076 3075 3075 3074 3072 3071 3070 3069 3067 3066 3064 3062 3061 3059 3056 3054 3051 3048 3047 3045 3042 3039 3037 3035 3033 3032 3031 3030 3028 3027
3081 3081 3082 3083 3084 3084 3084 3084 3084 3084 3084 3084 3084 3084 3084 3083 3082 3082 3081 3080 3079 3078 3077 3075 3073 3071 3070 3068 3065 3063 3061 3059 3057 3055 3052 3050 3048 3045 3044 3042 3042 3040 3039